Probability
0 0 0 0 0 0 0 0 0 0 0 0 0 0 0 0 0 0 0 0 0 0 0 0 0 0 0 0 2 4 3 1 0 0 0 0 0 0 0 0 0 0 0
0 0 0 0 0 0 0 0 0 0 0 0 0 0 0 0 0 0 0 0 0 0 0 0 0 0 0 0 6 17 19 12 6 3 1 0 0 0 0 0 0 0 0
0 0 0 0 0 0 0 0 0 0 0 0 0 0 0 0 0 0 0 0 0 0 2 10 18 16 9 8 16 35 48 43 34 28 20 13 7 2 0 0 0 0 0
0 0 0 0 0 0 0 0 0 0 0 0 0 0 0 0 0 0 0 0 0 0 3 23 50 54 42 40 44 50 58 65 70 69 60 49 33 14 2 0 0 0 0
0 0 0 0 0 0 0 0 0 0 0 0 0 0 0 0 0 0 0 0 0 0 2 20 49 68 74 78 77 66 48 50 72 88 91 86 66 31 6 1 0 0 0
0 0 0 0 0 0 0 0 0 0 0 0 0 0 0 0 0 0 0 0 0 0 0 6 18 37 64 85 90 79 57 41 49 74 94 100 86 52 20 5 1 0 0
0 0 0 0 0 0 0 0 0 0 0 0 0 0 0 0 0 0 0 0 0 0 0 0 0 7 26 54 75 83 80 66 50 59 85 99 95 75 43 18 6 2 1
0 0 0 0 0 0 0 0 0 0 0 0 0 0 0 0 0 0 0 0 0 0 0 0 0 0 5 17 39 63 81 85 75 68 83 98 99 89 66 40 19 6 2
0 0 0 0 0 0 0 0 0 0 0 0 0 0 0 0 0 0 0 0 0 0 0 0 0 0 0 1 9 25 53 82 93 90 92 98 99 94 83 62 34 12 5
0 0 0 0 0 0 0 0 0 0 0 0 0 0 0 0 0 0 0 0 0 0 0 0 0 0 0 0 0 4 23 61 91 99 98 95 93 92 89 75 44 16 7
0 0 0 0 0 0 0 0 0 0 0 0 0 0 0 0 0 0 0 0 0 0 0 0 0 0 0 0 0 0 7 36 77 97 97 92 86 85 85 72 43 14 4
0 0 0 0 0 0 0 0 0 0 0 0 0 0 0 0 0 0 0 0 0 0 0 0 0 0 0 0 0 0 0 17 48 68 72 74 74 69 62 47 24 6 1
0 0 0 0 0 0 0 0 0 0 0 0 0 0 0 0 0 0 0 0 0 0 0 0 0 0 0 0 0 0 0 5 15 23 27 35 43 39 25 14 6 0 0
0 0 0 0 0 0 0 0 0 0 0 0 0 0 0 0 0 0 0 0 0 0 0 0 0 0 0 0 0 0 0 0 0 0 1 5 10 9 3 0 0 0 0
0 0 0 0 0 0 0 0 0 0 0 0 0 0 0 0 0 0 0 0 0 0 0 0 0 0 0 0 0 0 0 0 0 0 0 0 0 0 0 0 0 0 0
0 0 0 0 0 0 0 0 0 0 0 0 0 0 0 0 0 0 0 0 0 0 0 0 0 0 0 0 0 0 0 0 0 0 0 0 0 0 0 0 0 0 0
0 0 0 0 0 0 0 0 0 0 0 0 0 0 0 0 0 0 0 0 0 0 0 0 0 0 0 0 0 0 0 0 0 0 0 0 0 0 0 0 0 0 0
0 0 0 0 0 0 0 0 0 0 0 0 0 0 0 0 0 0 0 0 0 0 0 0 0 0 0 0 0 0 0 0 0 0 0 0 0 0 0 0 0 0 0
0 0 0 0 0 0 0 0 0 0 0 0 0 0 0 0 0 0 0 0 0 0 0 0 0 0 0 0 0 0 0 0 0 0 0 0 0 0 0 0 0 0 0
0 0 0 0 0 0 0 0 0 0 0 0 0 0 0 0 0 0 0 0 0 0 0 0 0 0 0 0 0 0 0 0 0 0 0 0 0 0 0 0 0 0 0
0 0 0 0 0 0 0 0 0 0 0 0 0 0 0 0 0 0 0 0 0 0 0 0 0 0 0 0 0 0 0 0 0 0 0 0 0 0 0 0 0 0 0
0 0 0 0 0 0 0 0 0 0 0 0 0 0 0 0 0 0 0 0 0 0 0 0 0 0 0 0 0 0 0 0 0 0 0 0 0 0 0 0 0 0 0
0 0 0 0 0 0 0 0 0 0 0 0 0 0 0 0 0 0 0 0 0 0 0 0 0 0 0 0 0 0 0 0 0 0 0 0 0 0 0 0 0 0 0
0 0 0 0 0 0 0 0 0 0 0 0 0 0 0 0 0 0 0 0 0 0 0 0 0 0 0 0 0 0 0 0 0 0 0 0 0 0 0 0 0 0 0
0 0 0 0 0 0 0 0 0 0 0 0 0 0 0 0 0 0 0 0 0 0 0 0 0 0 0 0 0 0 0 0 0 0 0 0 0 0 0 0 0 0 0
0 0 0 0 0 0 0 0 0 0 0 0 0 0 0 0 0 0 0 0 0 0 0 0 0 0 0 0 0 0 0 0 0 0 0 0 0 0 0 0 0 0 0
Wind_Speed
10 10 7 5 3 2 2 3 3 4 5 5 5 5 5 5 5 4 4 11 14 16 18 20 20 19 19 18 17 16 15 15 14 13 11 10 10 8 6 5 4 4 4
11 11 10 9 7 4 4 3 4 4 4 4 5 5 6 5 5 5 5 7 13 15 18 20 22 21 20 20 18 17 17 17 16 14 13 11 10 9 7 6 5 4 4
13 12 11 10 9 8 6 4 4 4 4 4 5 5 5 6 5 6 6 5 6 11 15 19 21 21 22 21 20 18 18 18 17 16 14 13 11 10 8 7 6 5 4
12 11 10 10 10 9 7 6 5 3 4 4 4 5 5 5 6 6 6 5 5 5 8 14 18 20 20 20 20 19 18 18 18 17 16 14 12 11 9 8 6 5 5
12 10 9 9 11 8 7 6 7 5 4 5 5 5 5 5 6 5 6 6 6 6 4 7 13 14 16 18 18 19 19 19 19 18 17 15 13 12 11 9 7 6 5
12 10 9 11 11 8 7 7 7 6 5 5 5 6 5 5 5 5 6 5 5 6 6 5 5 5 10 15 17 18 19 20 19 19 18 16 15 13 12 10 8 6 5
13 11 9 10 10 9 10 8 8 8 6 3 3 5 5 5 5 5 5 5 5 5 5 5 4 3 4 10 14 15 18 19 20 20 19 17 16 14 13 11 8 6 5
13 11 11 10 10 10 11 8 8 7 5 4 4 2 3 4 4 4 4 5 5 4 5 6 6 5 5 4 6 9 12 17 18 20 20 19 18 17 14 11 8 7 6
12 12 12 10 10 10 9 9 8 9 8 6 6 5 4 5 1 2 2 3 4 4 4 6 7 6 7 5 4 5 7 12 16 19 21 20 20 19 16 12 9 8 6
12 12 12 12 10 9 8 9 9 8 9 8 5 5 4 3 3 2 2 2 3 4 4 4 6 6 7 5 5 5 7 8 14 17 20 22 22 21 18 13 10 7 6
12 11 11 11 10 9 9 10 10 10 9 9 7 4 2 2 3 3 3 2 2 2 2 3 4 4 5 5 4 6 8 7 10 13 16 21 22 20 17 14 12 11 9
10 12 14 12 12 12 12 11 11 12 11 10 8 6 5 5 5 4 3 3 3 3 2 2 2 2 2 2 4 8 9 6 6 4 7 11 12 13 12 14 14 11 11
10 13 15 14 14 14 14 12 11 12 12 13 8 6 7 7 4 5 5 3 2 2 1 1 1 1 2 2 5 6 8 9 9 10 9 9 12 14 15 15 14 13 12
11 14 15 16 16 16 15 13 11 11 11 12 11 5 6 8 4 4 6 6 2 1 1 1 0 1 2 2 6 7 4 9 12 12 12 12 14 15 15 16 15 14 13
12 14 15 16 16 16 16 14 11 12 11 11 10 8 6 7 5 4 4 5 6 4 4 2 1 1 1 2 6 6 3 7 11 13 14 14 14 15 16 16 15 15 14
15 15 16 17 17 17 16 15 12 11 10 9 6 5 4 4 4 3 4 4 4 5 4 4 3 1 1 1 3 4 4 8 11 14 14 15 15 16 16 17 16 15 14
15 16 16 17 16 16 15 13 13 12 11 6 1 3 3 0 1 1 3 4 3 4 3 3 1 0 1 1 2 2 2 4 6 12 14 15 15 15 15 15 15 15 14
15 16 16 16 16 15 15 14 12 10 8 3 4 5 7 6 4 3 1 4 5 4 4 3 2 1 1 0 2 2 2 2 4 10 14 14 14 14 14 14 13 12 11
16 16 15 16 17 15 14 16 16 12 8 4 2 3 3 3 3 2 3 3 2 3 2 3 2 1 1 1 2 3 3 2 1 6 13 14 14 14 13 12 11 10 10
16 16 14 14 16 15 11 14 16 15 12 11 9 7 5 1 1 3 3 2 1 2 2 3 2 2 1 2 2 2 3 3 3 3 3 5 9 10 10 10 10 10 9
15 16 14 13 14 14 11 13 12 13 13 12 10 8 8 12 10 5 3 1 1 1 2 3 3 2 1 2 2 1 3 4 4 3 4 4 4 4 4 3 5 9 9
15 15 15 13 13 12 19 20 13 9 10 10 10 10 10 13 15 17 18 15 12 6 2 2 3 3 2 3 2 2 4 4 3 2 3 4 4 4 3 3 6 12 14
14 14 14 13 13 14 23 20 15 7 8 9 9 9 8 10 12 13 19 21 21 21 16 8 6 5 4 3 2 2 3 3 4 3 2 4 4 4 5 6 13 14 15
11 11 12 13 13 15 25 22 12 6 7 8 8 7 7 8 9 12 11 11 13 14 14 11 9 7 6 5 5 4 5 7 8 5 5 4 3 3 6 8 13 14 15
11 11 10 11 12 14 23 24 11 4 4 6 7 6 7 7 15 16 12 12 12 13 18 23 23 21 21 17 11 6 6 4 5 4 6 3 4 3 4 6 9 11 13
12 12 11 10 13 13 20 23 14 4 6 6 7 8 12 15 20 20 12 11 11 10 9 11 14 16 15 16 18 12 6 4 4 4 6 4 3 2 4 4 4 5 7
Wind_Direction
356 344 334 321 299 287 279 281 284 278 270 263 248 238 240 238 236 230 235 248 251 255 258 256 247 234 223 213 210 207 205 205 207 204 201 201 201 197 194 188 187 193 196
357 351 341 331 319 303 276 260 262 262 262 257 252 242 243 242 239 235 232 242 246 247 250 251 249 242 234 224 216 209 207 209 209 207 205 205 204 204 204 204 196 193 197
355 348 342 337 331 322 299 273 256 247 250 251 252 251 247 247 245 244 238 229 239 242 243 247 248 241 236 229 225 215 210 209 209 205 204 207 207 210 211 209 203 201 210
352 344 336 331 329 323 311 291 271 252 243 231 239 247 242 238 241 240 234 223 221 232 236 241 242 236 235 235 233 229 218 210 208 205 203 204 204 208 213 214 210 208 213
345 339 329 325 324 318 313 301 284 260 249 247 242 244 234 230 236 234 234 225 215 218 222 233 236 232 232 238 237 238 234 221 211 208 205 199 201 206 211 213 212 212 216
335 333 325 326 321 316 313 313 297 279 254 245 249 256 244 231 228 225 233 229 220 216 209 212 222 232 230 236 239 241 244 238 225 215 209 198 200 204 208 208 208 210 217
331 330 329 324 322 315 311 308 303 286 268 233 239 262 253 237 230 225 224 222 221 219 212 206 204 221 232 238 238 233 240 239 231 222 211 201 198 198 203 205 206 211 218
330 331 330 323 321 317 313 317 315 300 273 214 215 226 279 283 251 231 219 216 222 212 222 225 217 221 233 228 230 227 235 239 235 228 216 203 198 197 200 202 211 221 224
336 331 327 326 321 313 312 317 311 307 293 272 219 202 202 230 266 266 222 221 226 222 220 226 227 226 233 226 214 208 221 237 238 231 221 206 197 197 194 199 209 219 223
328 329 328 324 316 310 310 310 312 307 294 282 263 230 222 197 193 228 263 238 234 233 233 227 230 228 232 221 204 195 194 224 234 228 220 210 202 199 199 194 195 180 152
328 328 324 315 308 308 309 307 307 299 290 279 266 248 214 241 235 183 213 238 257 248 247 247 228 222 220 214 191 183 176 199 220 223 223 221 212 204 201 190 162 139 130
328 330 328 323 319 316 310 304 297 291 287 274 259 244 222 201 202 180 178 204 225 250 250 268 239 214 188 175 156 151 150 148 137 156 186 197 183 185 175 149 133 130 126
325 329 329 327 320 312 305 298 292 286 282 269 252 247 249 234 196 173 160 163 204 255 276 256 248 195 158 135 120 135 145 138 114 100 93 109 121 130 132 129 132 131 121
322 325 324 314 309 305 298 292 286 278 275 266 252 246 269 252 222 186 160 141 139 264 288 217 307 243 174 146 136 126 126 134 127 122 115 110 114 121 126 128 132 129 122
320 322 316 311 306 300 292 284 282 276 273 268 251 224 230 253 233 207 150 142 145 167 207 205 170 249 192 133 135 127 123 126 127 129 131 130 126 129 128 127 127 126 121
324 323 319 314 309 304 299 288 279 276 271 268 243 207 188 225 223 221 150 131 134 141 167 180 192 248 179 100 126 117 130 130 131 128 130 133 134 133 133 132 131 128 124
320 321 322 319 321 322 317 306 287 265 258 234 135 26 36 288 130 182 135 135 130 125 142 158 160 202 90 131 107 84 100 101 125 136 139 139 139 140 140 138 137 138 135
320 322 325 327 329 335 343 343 333 312 280 232 90 55 28 7 21 7 251 158 139 141 131 145 173 161 109 134 103 121 139 137 135 151 150 148 149 152 151 147 144 143 140
323 325 330 335 335 340 358 2 360 356 346 353 45 96 52 1 321 36 17 23 68 116 121 133 150 187 140 92 85 76 68 59 74 166 161 160 162 162 159 155 153 152 149
327 326 333 339 337 336 1 15 6 5 5 21 18 28 21 57 182 75 55 34 16 118 136 130 139 183 168 99 93 113 112 84 54 44 131 164 159 161 162 164 159 158 157
331 331 330 342 343 338 354 28 13 3 359 15 11 22 25 30 44 87 108 91 93 138 155 148 144 170 144 102 112 114 117 98 55 32 57 36 61 72 76 105 129 130 126
335 335 334 340 343 336 353 25 28 6 357 9 12 16 20 24 34 50 66 69 66 62 77 114 132 121 65 41 57 89 115 117 116 28 70 45 33 59 37 83 110 112 109
336 337 335 337 338 338 352 8 29 17 14 17 16 16 23 26 34 40 47 49 53 55 58 59 69 78 79 30 8 77 78 81 99 48 65 81 25 49 29 74 97 102 103
333 334 332 336 336 344 349 3 32 26 29 24 19 24 32 31 52 57 50 43 42 44 53 59 67 75 80 63 43 53 75 94 79 46 24 96 66 27 45 49 71 84 86
335 336 335 336 339 345 349 354 25 16 18 15 9 20 64 50 61 61 54 47 42 38 45 56 57 57 60 60 54 53 54 95 104 53 17 49 69 44 41 43 26 57 70
338 337 338 343 343 343 347 355 28 15 23 17 8 12 46 65 66 64 57 53 48 46 51 53 53 47 44 46 50 49 40 52 74 88 17 25 66 47 46 29 32 17 40